COSMOS 2499 DEB, 49941

Orbit data source: Space-Track

COSMOS 2499 DEB, 49941 is space debris in LEO originally from a launch on Fri, 23 May 2014 UTC launched from the Plesetsk Missile And Space Complex (PKMTR). Debris objects in space refer to the collection of defunct objects orbiting the Earth. Examples of debris include non-operational satellites, rocket bodies, and fragments generated from explosions, collisions, or faulty payload assembly.

Loading next visibility...
Identifier
49941, 2014-028Y
Orbit
LEO
Country
Flag of CISCIS
Related business
Manufacturer
TsNIIKhM
Mission
Spacecraft
Bus & Motor
Unknown
Mass
Unknown
Launch date (UTC)
2014-05-23 (12 years ago)
Launch vehicle
Unknown
Launch site
Plesetsk Missile And Space Complex (PKMTR)
Object type
Payload
Rocket body
Debris
Shape & HBR
Unknown shape, 0.1 m
Radar Cross Section
Small (<0.1 m²)

Expand to show TLE details & history
Last TLE update: 1 day ago

TLE from 1 day ago
0 COSMOS 2499 DEB
1 49941U 14028Y   25349.35991406  .00002112  00000-0  68937-2 0  9993
2 49941  82.5660  20.3268 0231961  24.3514 336.8347 12.92362495193637
Epoch: 2025-12-15T08:38Z
TLE epoch observation values (Epoch: 2025-12-15T08:38:16.574Z)
Latitude
-0.00007°
Longitude
166.49813°
Altitude
1,131.989 km
Speed
7.364 km/s
True Right ascension
01h 21m 18s
True Declination
0° 00' 00"
Sunlit
Object was in daylight at epoch
Visualization orbit readout
Latitude
Unknown
Longitude
Unknown
Altitude
Unknown
Speed
Unknown
Apparent Right ascension
Unknown
Apparent Declination
Unknown
Sunlit
N/A
Visualization observer readout
Local Sidereal Time
11:09:55
Azimuth
Unknown
Elevation
Unknown
Doppler factor
Unknown
Orbital elements
Apogee altitude
1,467.296 km
Perigee altitude
1,111.58 km
Semi-major axis
7,667.575 km
Eccentricity
0.0232
Inclination
82.566°
RAAN
20.3268°
Arg. of periapsis
24.3514°
True anomaly
335.76051°
Mean anomaly
336.8347°
Eccentric anomaly
336.30051°
Mean motion
3.23263 °/min
Orbital period
111.36 mins
BSTAR
0.0068937
Loading maneuver chart data...
Computing Atmospheric mass density...
Loading historical data...
Loading historical data...
Loading historical data...
Loading historical data...
Loading historical data...
Loading historical data...
Loading historical data...

Documentation

Showing up to 5 results
|